Overview Statistics Trail Chart Weather Telemetry Raw packets
 

This is the latest recevied weather packets stored in our database for station/object W5ITZ. If no packets are shown the sender has not sent any weather packets the latest 10 day(s).

<< 30 31 32 33 34 35 36 >>
Time Temp. Humidity Pressure Rain* Wind** Luminosity Snow
1788019787 33.33° C 61% 1018.1 hPa 0 mm - 836 W/m² -
1788019487 32.78° C 64% 1018.2 hPa 0 mm - 805 W/m² -
1788019184 32.78° C 65% 1018.1 hPa 0 mm - 773 W/m² -
1788018879 32.22° C 65% 1018.2 hPa 0 mm - 764 W/m² -
1788018574 32.22° C 69% 1018.2 hPa 0 mm - 757 W/m² -
1788018273 31.67° C 68% 1018.1 hPa 0 mm - 784 W/m² -
1788017969 31.67° C 69% 1018 hPa 0 mm - 237 W/m² -
1788017666 32.22° C 67% 1018.4 hPa 0 mm - 220 W/m² -
1788017362 32.22° C 67% 1018.2 hPa 0 mm - 762 W/m² -
1788017058 32.22° C 68% 1018 hPa 0 mm - 722 W/m² -
1788016757 31.11° C 73% 1017.9 hPa 0 mm - 729 W/m² -
1788016456 31.11° C 74% 1017.9 hPa 0 mm - 176 W/m² -
1788016155 30.56° C 72% 1018.1 hPa 0 mm - 248 W/m² -
1788015854 30.56° C 73% 1018 hPa 0 mm - 195 W/m² -
1788015549 31.67° C 73% 1018 hPa 0 mm - 185 W/m² -
1788015244 31.11° C 76% 1018 hPa 0 mm - 630 W/m² -
1788014943 30.56° C 78% 1017.8 hPa 0 mm - 263 W/m² -
1788014637 30.56° C 77% 1018 hPa 0 mm - 136 W/m² -
1788014332 31.67° C 74% 1018 hPa 0 mm - 158 W/m² -
1788014028 31.11° C 76% 1018 hPa 0 mm - 446 W/m² -
1788013722 30.56° C 77% 1017.9 hPa 0 mm - 400 W/m² -
1788013422 30.56° C 80% 1018 hPa 0 mm - 378 W/m² -
1788013121 30° C 81% 1017.8 hPa 0 mm - 370 W/m² -
1788012820 29.44° C 82% 1017.9 hPa 0 mm - 280 W/m² -
1788012515 28.89° C 84% 1017.9 hPa 0 mm - 333 W/m² -

* Rain latest hour (hover to see other rain measurements)
** Current wind speed in m/s (hover to see current wind gust speed)